sat.trackr.live / text

‹ back to catalog

ONEWEB-0258

NORAD 48976 · 2021-060K

PAYLOAD ACTIVE UNKNOWN

§ Identity

Operator
Country
UK
Launch date
2021-07-01
Launch site
VOSTO
Launch vehicle
Mass (kg)
RCS (m²)

Purposes: comms

External: N2YO · Heavens-Above · Gunter

§ Orbital elements

Epoch: 2026-09-20T04:14:14.396064Z

Period
109.37 min
Inclination
87.9147°
Eccentricity
0.0001937
Mean motion
13.16594371 rev/d
Perigee alt
1,196.3 km
Apogee alt
1,199.2 km
Semi-major
7,575.9 km
B*
-1.0834e-4
RAAN
209.9225°
Arg perigee
76.3443°
Mean anomaly
283.7904°
Rev number
25,209

§ Raw data

ONEWEB-02581 48976U 21060K   26263.17655551 -.00000029  00000+0 -10834-3 0  99982 48976  87.9147 209.9225 0001937  76.3443 283.7904 13.16594371252099

JSON: /api/v1/satellites/48976 · /tle

For live sub-satellite position, see the globe view (requires WebGL).

§ Visibility from observer

Set your observer location to see the next 7 days of passes ≥ 10°. The values pass through the URL so the page stays shareable.

No JS? Fill the form by hand. The geolocation button needs JavaScript.